Regional Weather Roundup
Issued by NWS

Home | Current Version | Previous Version | Text Only | Print | Product List | Glossary Off
Versions: 1 2 3 4 5 6 7 8 9 10 11 12 13 14 15 16 17 18 19 20 21 22 23 24 25 26 27

000
ASUS45 KCYS 300110
RWRWY

WYOMING REGIONAL WEATHER ROUNDUP
NATIONAL WEATHER SERVICE CHEYENNE WY
700 PM MDT WED OCT 29 2014

NOTE:  "FAIR" INDICATES FEW OR NO CLOUDS BELOW 12,000 FEET
WITH NO SIGNIFICANT WEATHER AND/OR OBSTRUCTIONS TO VISIBILITY.

WYZ001-300200-
YELLOWSTONE NATIONAL PARK

CITY           SKY/WX    TMP DP  RH WIND       PRES   REMARKS
LK YELLOWSTONE   N/A     31  27  85 CALM      30.31R
W YELLOWSTONE  NOT AVBL

$$
WYZ002>013-054>058-071-098>099-300200-
NORTHERN WYOMING

CITY           SKY/WX    TMP DP  RH WIND       PRES   REMARKS
JACKSON        NOT AVBL
CODY           MOCLDY    50  25  37 CALM      30.16
GREYBULL       PTCLDY    54  22  28 W9        30.13R
WORLAND        PTCLDY    54  21  27 NW10      30.14R
SHERIDAN       CLOUDY    53  24  32 NW13      30.12R
BUFFALO        CLOUDY    50  25  37 N10       30.14R
GILLETTE       MOCLDY    50  25  37 NW10      30.10R
HULETT         FAIR      50  30  46 N3        30.08
NEWCASTLE      FAIR      50  30  46 CALM      30.08R

$$
WYZ014>020-022>026-101>103-300200-
CENTRAL WYOMING

CITY           SKY/WX    TMP DP  RH WIND       PRES   REMARKS
BIG PINEY      PTCLDY    42  26  53 N13       30.30R
PINEDALE       PTCLDY    39  28  65 NW3       30.30
DUBOIS         FAIR      37  28  70 NW15      30.25R WCI  28
LANDER         CLEAR     51  23  33 N10       30.19R
RIVERTON       CLEAR     51  27  39 NW15G24   30.20R
CASPER         CLEAR     42  20  41 NW5       30.16R
DOUGLAS        CLEAR     53  21  28 NW13      30.13R

$$
WYZ021-027>030-104>119-300200-
SOUTHERN WYOMING

CITY           SKY/WX    TMP DP  RH WIND       PRES   REMARKS
EVANSTON       PTCLDY    47  24  40 W15       30.32S
KEMMERER       CLEAR     43  30  61 W10       30.31R
FORT BRIDGER   FAIR      49  28  44 W10       30.34R
ROCK SPRINGS   PTCLDY    49  25  39 W13       30.28R
RAWLINS        PTCLDY    48  23  37 W15       30.24R
SARATOGA       CLOUDY    50  27  40 W9        30.26S
LARAMIE        CLEAR     46  23  40 W17       30.21R
CHEYENNE       PTCLDY    53  22  29 NW13      30.17R
TORRINGTON     PTCLDY    53  23  31 N9        30.07R
PINE BLUFFS    FAIR      54  23  30 NW13      30.13R

$$



USA.gov is the U.S. government's official web portal to all federal, state and local government web resources and services.